| time (UTC) | temp F | wind direction | speed MPH | gust MPH | rain 1hr in | rain 24hr in | rain mn in | humidity % | barometer mb |
| 20260831124853 | 62 | 188 | 0.0 | 5.0 | 0.00 | 0.07 | 0.01 | 49 | 1009.9 |
| 20260831124353 | 61 | 295 | 2.0 | 3.0 | 0.00 | 0.07 | 0.01 | 49 | 1009.8 |
| 20260831124054 | 61 | 4 | 0.0 | 4.0 | 0.00 | 0.07 | 0.01 | 51 | 1009.8 |
| 20260831123853 | 61 | 275 | 0.0 | 4.0 | 0.00 | 0.07 | 0.01 | 52 | 1009.8 |
| 20260831123353 | 61 | 320 | 0.0 | 4.0 | 0.00 | 0.07 | 0.01 | 46 | 1009.8 |
| 20260831122954 | 62 | 299 | 4.0 | 6.0 | 0.00 | 0.07 | 0.01 | 50 | 1009.9 |
| 20260831122853 | 62 | 281 | 3.0 | 6.0 | 0.00 | 0.07 | 0.01 | 49 | 1009.9 |
| 20260831122353 | 61 | 223 | 0.0 | 4.0 | 0.00 | 0.07 | 0.01 | 49 | 1009.9 |
| 20260831121853 | 61 | 277 | 2.0 | 5.0 | 0.00 | 0.07 | 0.01 | 52 | 1009.9 |
| 20260831121353 | 61 | 281 | 1.0 | 4.0 | 0.00 | 0.07 | 0.01 | 53 | 1009.9 |
| 20260831120853 | 61 | 323 | 3.0 | 7.0 | 0.00 | 0.07 | 0.01 | 48 | 1009.9 |
| 20260831120754 | 61 | 289 | 0.0 | 3.0 | 0.00 | 0.07 | 0.01 | 52 | 1009.9 |
| 20260831120353 | 60 | 285 | 0.0 | 3.0 | 0.00 | 0.07 | 0.01 | 54 | 1009.8 |
| 20260831115853 | 60 | 305 | 1.0 | 6.0 | 0.00 | 0.07 | 0.01 | 47 | 1009.9 |
| 20260831115654 | 61 | 312 | 4.0 | 6.0 | 0.00 | 0.07 | 0.01 | 49 | 1009.8 |
| 20260831115353 | 61 | 275 | 0.0 | 3.0 | 0.00 | 0.07 | 0.01 | 53 | 1009.8 |
| 20260831114853 | 60 | 307 | 2.0 | 5.0 | 0.00 | 0.07 | 0.01 | 52 | 1009.8 |
| 20260831114554 | 60 | 137 | 0.0 | 4.0 | 0.00 | 0.07 | 0.01 | 53 | 1009.7 |
| 20260831114353 | 60 | 251 | 0.0 | 5.0 | 0.00 | 0.07 | 0.01 | 53 | 1009.8 |
| 20260831113853 | 60 | 320 | 4.0 | 6.0 | 0.00 | 0.07 | 0.01 | 53 | 1009.7 |
| 20260831113454 | 61 | 300 | 0.0 | 5.0 | 0.00 | 0.07 | 0.01 | 56 | 1009.6 |
| 20260831113353 | 61 | 289 | 0.0 | 5.0 | 0.00 | 0.07 | 0.01 | 55 | 1009.7 |
| 20260831112853 | 60 | 309 | 1.0 | 7.0 | 0.00 | 0.07 | 0.01 | 56 | 1009.7 |
| 20260831112353 | 60 | 316 | 0.0 | 4.0 | 0.00 | 0.07 | 0.01 | 54 | 1009.7 |
| 20260831111853 | 60 | 271 | 1.0 | 7.0 | 0.00 | 0.07 | 0.01 | 51 | 1009.6 |
| 20260831111353 | 61 | 333 | 3.0 | 6.0 | 0.00 | 0.07 | 0.01 | 54 | 1009.3 |
| 20260831111254 | 61 | 205 | 0.0 | 6.0 | 0.00 | 0.07 | 0.01 | 54 | 1009.6 |
| 20260831110853 | 61 | 161 | 1.0 | 5.0 | 0.00 | 0.07 | 0.01 | 54 | 1009.6 |
| 20260831110353 | 60 | 254 | 3.0 | 4.0 | 0.00 | 0.07 | 0.01 | 56 | 1009.6 |
| 20260831110154 | 60 | 212 | 0.0 | 5.0 | 0.00 | 0.07 | 0.01 | 55 | 1009.6 |
| 20260831105853 | 60 | 288 | 1.0 | 5.0 | 0.00 | 0.07 | 0.01 | 56 | 1009.6 |
| 20260831105353 | 59 | 161 | 0.0 | 6.0 | 0.00 | 0.07 | 0.01 | 57 | 1009.6 |
| 20260831105054 | 59 | 262 | 1.0 | 6.0 | 0.00 | 0.07 | 0.01 | 58 | 1009.6 |
| 20260831104853 | 59 | 316 | 1.0 | 6.0 | 0.00 | 0.07 | 0.01 | 56 | 1009.7 |
| 20260831104353 | 59 | 292 | 0.0 | 2.0 | 0.00 | 0.07 | 0.01 | 57 | 1009.7 |
| 20260831103954 | 59 | 292 | 1.0 | 5.0 | 0.00 | 0.07 | 0.01 | 60 | 1009.7 |
| 20260831103853 | 59 | 286 | 0.0 | 5.0 | 0.00 | 0.07 | 0.01 | 62 | 1009.7 |
| 20260831103353 | 59 | 232 | 3.0 | 4.0 | 0.00 | 0.07 | 0.01 | 62 | 1009.7 |
| 20260831102853 | 59 | 324 | 0.0 | 4.0 | 0.00 | 0.07 | 0.01 | 61 | 1009.7 |
| 20260831102353 | 59 | 233 | 0.0 | 4.0 | 0.00 | 0.07 | 0.01 | 62 | 1009.6 |
| 20260831101853 | 59 | 334 | 2.0 | 4.0 | 0.00 | 0.07 | 0.01 | 63 | 1009.7 |
| 20260831101754 | 59 | 149 | 0.0 | 5.0 | 0.00 | 0.07 | 0.01 | 63 | 1009.7 |
| 20260831101353 | 59 | 284 | 1.0 | 5.0 | 0.00 | 0.07 | 0.01 | 64 | 1009.7 |
| 20260831100853 | 58 | 262 | 3.0 | 5.0 | 0.00 | 0.07 | 0.01 | 64 | 1009.7 |
| 20260831100654 | 58 | 305 | 3.0 | 5.0 | 0.00 | 0.07 | 0.01 | 64 | 1009.7 |
| 20260831100353 | 58 | 350 | 0.0 | 5.0 | 0.00 | 0.07 | 0.01 | 66 | 1009.7 |
| 20260831095853 | 57 | 305 | 1.0 | 4.0 | 0.00 | 0.07 | 0.01 | 67 | 1009.7 |
| 20260831095554 | 57 | 216 | 0.0 | 5.0 | 0.00 | 0.07 | 0.01 | 67 | 1009.7 |
| 20260831095353 | 57 | 258 | 1.0 | 5.0 | 0.00 | 0.07 | 0.01 | 67 | 1009.7 |
| 20260831094853 | 56 | 310 | 0.0 | 4.0 | 0.00 | 0.07 | 0.01 | 67 | 1009.6 |
| 20260831094454 | 56 | 258 | 0.0 | 5.0 | 0.00 | 0.07 | 0.01 | 68 | 1009.6 |
| 20260831094353 | 56 | 251 | 2.0 | 5.0 | 0.00 | 0.07 | 0.01 | 68 | 1009.6 |
| 20260831093853 | 56 | 215 | 0.0 | 0.0 | 0.00 | 0.07 | 0.01 | 68 | 1009.6 |
| 20260831093353 | 56 | 215 | 0.0 | 5.0 | 0.00 | 0.07 | 0.01 | 69 | 1009.6 |
| 20260831092853 | 55 | 254 | 4.0 | 6.0 | 0.00 | 0.07 | 0.01 | 69 | 1009.7 |
| 20260831092353 | 55 | 299 | 1.0 | 5.0 | 0.00 | 0.07 | 0.01 | 68 | 1009.6 |
| 20260831092254 | 55 | 305 | 2.0 | 5.0 | 0.00 | 0.07 | 0.01 | 68 | 1009.6 |
| 20260831091853 | 55 | 293 | 2.0 | 4.0 | 0.00 | 0.07 | 0.01 | 69 | 1009.6 |
| 20260831091353 | 56 | 313 | 1.0 | 4.0 | 0.00 | 0.07 | 0.01 | 67 | 1009.6 |
| 20260831091154 | 56 | 299 | 2.0 | 4.0 | 0.00 | 0.07 | 0.01 | 69 | 1009.6 |
| 20260831090853 | 55 | 275 | 2.0 | 4.0 | 0.00 | 0.07 | 0.01 | 67 | 1009.6 |
| 20260831090353 | 55 | 334 | 0.0 | 6.0 | 0.00 | 0.07 | 0.01 | 68 | 1009.6 |
| 20260831090054 | 55 | 274 | 0.0 | 7.0 | 0.00 | 0.07 | 0.01 | 69 | 1009.6 |
| 20260831085853 | 55 | 310 | 1.0 | 7.0 | 0.00 | 0.07 | 0.01 | 68 | 1009.6 |
| 20260831085353 | 55 | 286 | 0.0 | 4.0 | 0.00 | 0.07 | 0.01 | 69 | 1009.6 |
| 20260831084954 | 54 | 317 | 0.0 | 4.0 | 0.00 | 0.07 | 0.01 | 70 | 1009.6 |
| 20260831084853 | 54 | 317 | 0.0 | 4.0 | 0.00 | 0.07 | 0.01 | 69 | 1009.6 |
| 20260831084353 | 54 | 316 | 2.0 | 5.0 | 0.00 | 0.07 | 0.01 | 71 | 1009.6 |
| 20260831083853 | 54 | 286 | 3.0 | 5.0 | 0.00 | 0.07 | 0.01 | 71 | 1009.4 |
| 20260831083353 | 54 | 285 | 0.0 | 6.0 | 0.00 | 0.07 | 0.01 | 70 | 1009.4 |
| 20260831082853 | 54 | 315 | 2.0 | 3.0 | 0.00 | 0.07 | 0.01 | 74 | 1009.3 |
| 20260831082754 | 54 | 261 | 0.0 | 3.0 | 0.00 | 0.07 | 0.01 | 74 | 1009.4 |
| 20260831082353 | 53 | 291 | 0.0 | 2.0 | 0.00 | 0.07 | 0.01 | 75 | 1009.6 |
| 20260831081853 | 53 | 262 | 2.0 | 4.0 | 0.00 | 0.07 | 0.01 | 76 | 1009.4 |
| 20260831081654 | 52 | 271 | 2.0 | 4.0 | 0.00 | 0.07 | 0.01 | 77 | 1009.4 |
| 20260831081353 | 52 | 315 | 1.0 | 3.0 | 0.00 | 0.07 | 0.01 | 77 | 1009.4 |
| 20260831080853 | 51 | 277 | 1.0 | 2.0 | 0.00 | 0.07 | 0.01 | 79 | 1009.4 |
| 20260831080554 | 51 | 312 | 0.0 | 3.0 | 0.00 | 0.07 | 0.01 | 80 | 1009.6 |
| 20260831080353 | 51 | 274 | 0.0 | 3.0 | 0.00 | 0.07 | 0.01 | 80 | 1009.6 |
| 20260831075853 | 51 | 291 | 0.0 | 0.0 | 0.00 | 0.07 | 0.01 | 81 | 1009.6 |
| 20260831075454 | 50 | 291 | 0.0 | 0.0 | 0.00 | 0.07 | 0.01 | 82 | 1009.6 |
| 20260831075353 | 50 | 291 | 0.0 | 0.0 | 0.00 | 0.07 | 0.01 | 82 | 1009.6 |
| 20260831074853 | 50 | 291 | 0.0 | 2.0 | 0.00 | 0.07 | 0.01 | 82 | 1009.6 |
| 20260831074353 | 49 | 299 | 2.0 | 2.0 | 0.00 | 0.07 | 0.01 | 83 | 1009.4 |
| 20260831073853 | 49 | 302 | 1.0 | 2.0 | 0.00 | 0.07 | 0.01 | 84 | 1009.4 |
| 20260831073353 | 49 | 215 | 0.0 | 0.0 | 0.00 | 0.07 | 0.01 | 84 | 1009.4 |
| 20260831073254 | 49 | 215 | 0.0 | 0.0 | 0.00 | 0.07 | 0.01 | 84 | 1009.3 |
| 20260831072853 | 48 | 215 | 0.0 | 0.0 | 0.00 | 0.07 | 0.01 | 85 | 1009.4 |
| 20260831072353 | 48 | 215 | 0.0 | 0.0 | 0.00 | 0.07 | 0.01 | 86 | 1009.3 |
| 20260831072154 | 48 | 215 | 0.0 | 0.0 | 0.00 | 0.07 | 0.01 | 86 | 1009.3 |
| 20260831071853 | 48 | 215 | 0.0 | 1.0 | 0.00 | 0.07 | 0.01 | 86 | 1009.3 |
| 20260831071353 | 47 | 226 | 0.0 | 1.0 | 0.00 | 0.07 | 0.01 | 86 | 1009.3 |
| 20260831071054 | 47 | 265 | 0.0 | 1.0 | 0.00 | 0.07 | 0.01 | 87 | 1009.3 |
| 20260831070853 | 47 | 322 | 0.0 | 0.0 | 0.00 | 0.07 | 0.01 | 87 | 1009.3 |
| 20260831070353 | 47 | 322 | 0.0 | 0.0 | 0.00 | 0.07 | 0.01 | 87 | 1009.3 |
| 20260831065954 | 47 | 322 | 0.0 | 0.0 | 0.00 | 0.07 | 0.01 | 88 | 1009.3 |
| 20260831065853 | 47 | 322 | 0.0 | 0.0 | 0.00 | 0.07 | 0.01 | 88 | 1009.3 |
| 20260831065353 | 46 | 322 | 0.0 | 0.0 | 0.00 | 0.07 | 0.01 | 89 | 1009.3 |
| 20260831064853 | 46 | 322 | 0.0 | 0.0 | 0.00 | 0.07 | 0.01 | 89 | 1009.3 |
| 20260831064353 | 46 | 322 | 0.0 | 0.0 | 0.00 | 0.07 | 0.01 | 89 | 1009.2 |
| 20260831063853 | 45 | 322 | 0.0 | 0.0 | 0.00 | 0.07 | 0.01 | 89 | 1009.0 |
| 20260831063754 | 45 | 322 | 0.0 | 0.0 | 0.00 | 0.07 | 0.01 | 89 | 1009.2 |
| 20260831063353 | 45 | 322 | 0.0 | 0.0 | 0.00 | 0.07 | 0.01 | 88 | 1009.2 |
| 20260831062853 | 45 | 322 | 0.0 | 0.0 | 0.00 | 0.07 | 0.01 | 89 | 1009.1 |
| 20260831062654 | 45 | 322 | 0.0 | 0.0 | 0.00 | 0.07 | 0.01 | 89 | 1009.1 |
| 20260831062353 | 45 | 322 | 0.0 | 0.0 | 0.00 | 0.07 | 0.01 | 89 | 1009.1 |
| 20260831061853 | 45 | 322 | 0.0 | 0.0 | 0.00 | 0.07 | 0.01 | 89 | 1009.1 |
| 20260831061555 | 45 | 322 | 0.0 | 0.0 | 0.00 | 0.07 | 0.01 | 89 | 1009.1 |
| 20260831061353 | 45 | 322 | 0.0 | 0.0 | 0.00 | 0.07 | 0.01 | 90 | 1009.0 |
| 20260831060854 | 44 | 322 | 0.0 | 0.0 | 0.00 | 0.07 | 0.01 | 90 | 1009.0 |
| 20260831060454 | 44 | 322 | 0.0 | 0.0 | 0.00 | 0.07 | 0.01 | 90 | 1008.9 |
| 20260831060353 | 44 | 322 | 0.0 | 0.0 | 0.00 | 0.07 | 0.01 | 90 | 1008.9 |
| 20260831055854 | 44 | 322 | 0.0 | 0.0 | 0.00 | 0.07 | 0.01 | 90 | 1008.9 |
| 20260831055354 | 44 | 322 | 0.0 | 0.0 | 0.00 | 0.07 | 0.01 | 91 | 1008.8 |
| 20260831054853 | 44 | 322 | 0.0 | 0.0 | 0.00 | 0.07 | 0.01 | 92 | 1008.8 |
| 20260831054354 | 43 | 322 | 0.0 | 0.0 | 0.00 | 0.07 | 0.01 | 92 | 1008.8 |
| 20260831054254 | 43 | 322 | 0.0 | 0.0 | 0.00 | 0.07 | 0.01 | 92 | 1008.8 |
| 20260831053854 | 43 | 322 | 0.0 | 0.0 | 0.00 | 0.07 | 0.01 | 92 | 1008.8 |
| 20260831053354 | 43 | 322 | 0.0 | 0.0 | 0.00 | 0.07 | 0.01 | 93 | 1008.8 |
| 20260831053154 | 43 | 322 | 0.0 | 0.0 | 0.00 | 0.07 | 0.01 | 93 | 1008.8 |
| 20260831052854 | 43 | 322 | 0.0 | 0.0 | 0.00 | 0.07 | 0.01 | 93 | 1008.8 |
| 20260831052354 | 43 | 322 | 0.0 | 0.0 | 0.00 | 0.07 | 0.01 | 93 | 1008.7 |
| 20260831052054 | 43 | 322 | 0.0 | 0.0 | 0.00 | 0.07 | 0.01 | 93 | 1008.7 |
| 20260831051854 | 43 | 322 | 0.0 | 2.0 | 0.00 | 0.07 | 0.01 | 94 | 1008.7 |
| 20260831051354 | 43 | 316 | 1.0 | 4.0 | 0.00 | 0.07 | 0.01 | 95 | 1008.7 |
| 20260831050954 | 42 | 298 | 0.0 | 0.0 | 0.00 | 0.07 | 0.01 | 95 | 1008.5 |
| 20260831050854 | 42 | 298 | 0.0 | 0.0 | 0.00 | 0.07 | 0.01 | 94 | 1008.5 |
| 20260831050354 | 42 | 298 | 0.0 | 0.0 | 0.00 | 0.07 | 0.01 | 94 | 1008.5 |
| 20260831045854 | 42 | 298 | 0.0 | 0.0 | 0.00 | 0.07 | 0.01 | 94 | 1008.5 |
| 20260831045354 | 42 | 298 | 0.0 | 0.0 | 0.00 | 0.07 | 0.01 | 93 | 1008.7 |
| 20260831044854 | 42 | 298 | 0.0 | 0.0 | 0.00 | 0.07 | 0.01 | 94 | 1008.7 |
| 20260831044754 | 42 | 298 | 0.0 | 0.0 | 0.00 | 0.07 | 0.01 | 94 | 1008.7 |
| 20260831044354 | 42 | 298 | 0.0 | 0.0 | 0.00 | 0.07 | 0.01 | 94 | 1008.7 |
| 20260831043854 | 42 | 298 | 0.0 | 0.0 | 0.00 | 0.07 | 0.01 | 95 | 1008.7 |
| 20260831043655 | 42 | 298 | 0.0 | 0.0 | 0.00 | 0.07 | 0.01 | 95 | 1008.5 |
| 20260831043354 | 42 | 298 | 0.0 | 0.0 | 0.00 | 0.07 | 0.01 | 95 | 1008.4 |
| 20260831042854 | 42 | 298 | 0.0 | 0.0 | 0.00 | 0.07 | 0.01 | 93 | 1008.5 |
| 20260831042555 | 42 | 298 | 0.0 | 0.0 | 0.00 | 0.07 | 0.01 | 93 | 1008.5 |
| 20260831042354 | 42 | 298 | 0.0 | 0.0 | 0.00 | 0.07 | 0.01 | 93 | 1008.5 |
| 20260831041854 | 42 | 298 | 0.0 | 0.0 | 0.00 | 0.07 | 0.01 | 93 | 1008.4 |
| 20260831041455 | 42 | 298 | 0.0 | 0.0 | 0.00 | 0.07 | 0.01 | 94 | 1008.4 |
| 20260831041354 | 42 | 298 | 0.0 | 0.0 | 0.00 | 0.07 | 0.01 | 94 | 1008.4 |
| 20260831040854 | 42 | 298 | 0.0 | 0.0 | 0.00 | 0.07 | 0.01 | 94 | 1008.4 |
| 20260831040354 | 42 | 298 | 0.0 | 0.0 | 0.00 | 0.07 | 0.01 | 94 | 1008.4 |
| 20260831035854 | 43 | 298 | 0.0 | 0.0 | 0.00 | 0.07 | 0.01 | 94 | 1008.3 |
| 20260831035354 | 43 | 298 | 0.0 | 0.0 | 0.00 | 0.07 | 0.01 | 94 | 1008.1 |
| 20260831035255 | 43 | 298 | 0.0 | 0.0 | 0.00 | 0.07 | 0.01 | 94 | 1008.3 |
| 20260831034854 | 42 | 298 | 0.0 | 0.0 | 0.00 | 0.07 | 0.01 | 94 | 1008.3 |
| 20260831034354 | 42 | 298 | 0.0 | 0.0 | 0.00 | 0.07 | 0.01 | 94 | 1008.3 |
| 20260831034155 | 42 | 298 | 0.0 | 0.0 | 0.00 | 0.07 | 0.01 | 94 | 1008.3 |
| 20260831033854 | 42 | 298 | 0.0 | 0.0 | 0.00 | 0.07 | 0.01 | 93 | 1008.3 |
| 20260831033354 | 42 | 298 | 0.0 | 0.0 | 0.00 | 0.07 | 0.01 | 93 | 1008.3 |
| 20260831033055 | 42 | 298 | 0.0 | 0.0 | 0.00 | 0.07 | 0.01 | 93 | 1008.3 |
| 20260831032854 | 42 | 298 | 0.0 | 0.0 | 0.00 | 0.07 | 0.01 | 93 | 1008.3 |
| 20260831032354 | 43 | 298 | 0.0 | 0.0 | 0.00 | 0.07 | 0.01 | 92 | 1008.3 |
| 20260831031955 | 43 | 298 | 0.0 | 0.0 | 0.00 | 0.07 | 0.01 | 93 | 1008.3 |
| 20260831031854 | 43 | 298 | 0.0 | 0.0 | 0.00 | 0.07 | 0.01 | 93 | 1008.3 |
| 20260831031354 | 44 | 298 | 0.0 | 0.0 | 0.00 | 0.07 | 0.01 | 94 | 1008.3 |
| 20260831030854 | 43 | 298 | 0.0 | 3.0 | 0.00 | 0.07 | 0.01 | 95 | 1008.2 |
| 20260831030354 | 43 | 327 | 3.0 | 3.0 | 0.00 | 0.07 | 0.01 | 95 | 1008.2 |
| 20260831025854 | 42 | 146 | 0.0 | 0.0 | 0.00 | 0.07 | 0.01 | 92 | 1008.1 |
| 20260831025755 | 42 | 146 | 0.0 | 0.0 | 0.00 | 0.07 | 0.01 | 92 | 1008.2 |
| 20260831025354 | 43 | 146 | 0.0 | 0.0 | 0.00 | 0.07 | 0.01 | 92 | 1008.2 |
| 20260831024854 | 43 | 146 | 0.0 | 2.0 | 0.00 | 0.07 | 0.01 | 93 | 1008.2 |
| 20260831024655 | 43 | 146 | 0.0 | 2.0 | 0.00 | 0.07 | 0.01 | 93 | 1008.2 |
| 20260831024354 | 43 | 135 | 0.0 | 0.0 | 0.00 | 0.07 | 0.01 | 93 | 1008.1 |
| 20260831023854 | 43 | 135 | 0.0 | 0.0 | 0.00 | 0.07 | 0.01 | 93 | 1008.2 |
| 20260831023555 | 43 | 135 | 0.0 | 0.0 | 0.00 | 0.07 | 0.01 | 93 | 1008.2 |
| 20260831023354 | 43 | 135 | 0.0 | 0.0 | 0.00 | 0.07 | 0.01 | 92 | 1008.2 |
| 20260831022854 | 43 | 135 | 0.0 | 0.0 | 0.00 | 0.07 | 0.01 | 92 | 1008.3 |
| 20260831022455 | 44 | 135 | 0.0 | 0.0 | 0.00 | 0.07 | 0.01 | 92 | 1008.3 |
| 20260831022354 | 44 | 135 | 0.0 | 0.0 | 0.00 | 0.07 | 0.01 | 92 | 1008.3 |
| 20260831021854 | 44 | 135 | 0.0 | 0.0 | 0.00 | 0.07 | 0.01 | 93 | 1008.2 |
| 20260831021354 | 44 | 135 | 0.0 | 0.0 | 0.00 | 0.07 | 0.01 | 94 | 1008.3 |
| 20260831020854 | 43 | 135 | 0.0 | 0.0 | 0.00 | 0.07 | 0.01 | 93 | 1008.3 |
| 20260831020354 | 43 | 135 | 0.0 | 0.0 | 0.00 | 0.07 | 0.01 | 92 | 1008.0 |
| 20260831020255 | 43 | 135 | 0.0 | 0.0 | 0.00 | 0.07 | 0.01 | 92 | 1008.3 |
| 20260831015854 | 43 | 135 | 0.0 | 0.0 | 0.00 | 0.07 | 0.01 | 92 | 1008.3 |
| 20260831015354 | 43 | 135 | 0.0 | 0.0 | 0.00 | 0.07 | 0.01 | 91 | 1008.3 |
| 20260831015155 | 43 | 135 | 0.0 | 0.0 | 0.00 | 0.07 | 0.01 | 91 | 1008.3 |
| 20260831014854 | 43 | 135 | 0.0 | 0.0 | 0.00 | 0.07 | 0.01 | 91 | 1008.3 |
| 20260831014354 | 44 | 135 | 0.0 | 4.0 | 0.00 | 0.07 | 0.01 | 91 | 1008.3 |
| 20260831014055 | 44 | 136 | 1.0 | 4.0 | 0.00 | 0.07 | 0.01 | 91 | 1008.2 |
| 20260831013854 | 44 | 97 | 0.0 | 3.0 | 0.00 | 0.07 | 0.01 | 91 | 1008.2 |
| 20260831013354 | 44 | 75 | 0.0 | 4.0 | 0.00 | 0.07 | 0.01 | 90 | 1008.2 |
| 20260831012955 | 44 | 113 | 2.0 | 3.0 | 0.00 | 0.07 | 0.01 | 90 | 1008.1 |
| 20260831012854 | 44 | 122 | 2.0 | 2.0 | 0.00 | 0.07 | 0.01 | 90 | 1008.1 |
| 20260831012354 | 44 | 210 | 0.0 | 0.0 | 0.00 | 0.07 | 0.01 | 91 | 1008.1 |
| 20260831011854 | 44 | 210 | 0.0 | 0.0 | 0.00 | 0.07 | 0.01 | 90 | 1008.1 |
| 20260831011354 | 45 | 210 | 0.0 | 0.0 | 0.00 | 0.07 | 0.01 | 90 | 1008.1 |
| 20260831010854 | 45 | 210 | 0.0 | 0.0 | 0.00 | 0.07 | 0.01 | 90 | 1007.9 |
| 20260831010755 | 45 | 210 | 0.0 | 0.0 | 0.00 | 0.07 | 0.01 | 90 | 1008.0 |
| 20260831010354 | 45 | 210 | 0.0 | 0.0 | 0.00 | 0.07 | 0.01 | 89 | 1008.0 |
| 20260831005854 | 45 | 210 | 0.0 | 0.0 | 0.00 | 0.07 | 0.01 | 89 | 1008.1 |
| 20260831005655 | 46 | 210 | 0.0 | 0.0 | 0.00 | 0.07 | 0.01 | 89 | 1008.1 |
| 20260831005354 | 46 | 210 | 0.0 | 0.0 | 0.00 | 0.07 | 0.01 | 89 | 1008.0 |
| 20260831004854 | 46 | 210 | 0.0 | 1.0 | 0.00 | 0.07 | 0.01 | 90 | 1008.0 |
| 20260831004555 | 46 | 210 | 0.0 | 1.0 | 0.00 | 0.07 | 0.01 | 89 | 1008.0 |
| 20260831004354 | 46 | 298 | 0.0 | 0.0 | 0.00 | 0.07 | 0.01 | 89 | 1008.0 |
| 20260831003854 | 47 | 298 | 0.0 | 0.0 | 0.00 | 0.07 | 0.01 | 89 | 1008.0 |
| 20260831003455 | 47 | 298 | 0.0 | 0.0 | 0.00 | 0.07 | 0.01 | 90 | 1008.0 |
| 20260831003354 | 47 | 298 | 0.0 | 0.0 | 0.00 | 0.07 | 0.01 | 90 | 1008.0 |
| 20260831002854 | 47 | 298 | 0.0 | 3.0 | 0.00 | 0.07 | 0.01 | 90 | 1007.9 |
| 20260831002354 | 47 | 299 | 0.0 | 2.0 | 0.00 | 0.07 | 0.01 | 91 | 1007.9 |
| 20260831001854 | 47 | 322 | 1.0 | 3.0 | 0.00 | 0.07 | 0.01 | 91 | 1008.0 |
| 20260831001354 | 47 | 239 | 0.0 | 0.0 | 0.00 | 0.07 | 0.01 | 90 | 1007.6 |
| 20260831001255 | 47 | 239 | 0.0 | 0.0 | 0.00 | 0.07 | 0.01 | 90 | 1008.0 |
| 20260831000854 | 47 | 239 | 0.0 | 0.0 | 0.00 | 0.07 | 0.01 | 90 | 1008.1 |
| 20260831000355 | 47 | 239 | 0.0 | 0.0 | 0.00 | 0.07 | 0.01 | 90 | 1008.0 |
| 20260831000155 | 47 | 239 | 0.0 | 0.0 | 0.00 | 0.07 | 0.01 | 90 | 1008.1 |
| 20260830235854 | 47 | 239 | 0.0 | 0.0 | 0.00 | 0.07 | 0.01 | 90 | 1008.1 |
| 20260830235354 | 47 | 239 | 0.0 | 0.0 | 0.00 | 0.07 | 0.01 | 90 | 1008.0 |
| 20260830235055 | 47 | 239 | 0.0 | 0.0 | 0.00 | 0.07 | 0.01 | 90 | 1008.0 |
| 20260830234854 | 47 | 239 | 0.0 | 0.0 | 0.00 | 0.07 | 0.01 | 90 | 1008.0 |
| 20260830234354 | 48 | 239 | 0.0 | 0.0 | 0.00 | 0.07 | 0.01 | 89 | 1008.0 |
| 20260830233955 | 48 | 239 | 0.0 | 0.0 | 0.00 | 0.07 | 0.01 | 89 | 1008.0 |
| 20260830233854 | 48 | 239 | 0.0 | 0.0 | 0.00 | 0.07 | 0.01 | 89 | 1007.9 |
| 20260830233354 | 48 | 239 | 0.0 | 1.0 | 0.00 | 0.07 | 0.01 | 90 | 1008.0 |
| 20260830232854 | 48 | 239 | 0.0 | 3.0 | 0.00 | 0.07 | 0.01 | 90 | 1007.9 |
| 20260830232354 | 48 | 295 | 0.0 | 0.0 | 0.00 | 0.07 | 0.01 | 90 | 1008.0 |
| 20260830231854 | 48 | 295 | 0.0 | 0.0 | 0.00 | 0.07 | 0.01 | 90 | 1008.0 |
| 20260830231755 | 48 | 295 | 0.0 | 0.0 | 0.00 | 0.07 | 0.01 | 90 | 1008.0 |
| 20260830231354 | 49 | 295 | 0.0 | 0.0 | 0.00 | 0.07 | 0.01 | 89 | 1007.9 |
| 20260830230854 | 49 | 295 | 0.0 | 0.0 | 0.01 | 0.07 | 0.01 | 89 | 1007.9 |
| 20260830230655 | 49 | 295 | 0.0 | 0.0 | 0.01 | 0.07 | 0.01 | 89 | 1007.9 |
| 20260830230354 | 49 | 295 | 0.0 | 0.0 | 0.01 | 0.07 | 0.01 | 90 | 1007.9 |
| 20260830225854 | 49 | 295 | 0.0 | 0.0 | 0.01 | 0.07 | 0.01 | 91 | 1007.9 |
| 20260830225555 | 49 | 295 | 0.0 | 0.0 | 0.01 | 0.07 | 0.01 | 91 | 1007.9 |
| 20260830225354 | 49 | 295 | 0.0 | 0.0 | 0.01 | 0.07 | 0.01 | 91 | 1007.9 |
| 20260830224854 | 49 | 295 | 0.0 | 3.0 | 0.01 | 0.07 | 0.01 | 91 | 1007.9 |
| 20260830224455 | 49 | 275 | 0.0 | 3.0 | 0.01 | 0.07 | 0.01 | 91 | 1007.9 |
| 20260830224354 | 49 | 275 | 0.0 | 3.0 | 0.01 | 0.07 | 0.01 | 91 | 1007.9 |
| 20260830223854 | 50 | 310 | 0.0 | 5.0 | 0.01 | 0.07 | 0.01 | 91 | 1007.9 |
| 20260830223354 | 50 | 279 | 0.0 | 4.0 | 0.01 | 0.07 | 0.01 | 92 | 1007.8 |
| 20260830222854 | 50 | 270 | 0.0 | 2.0 | 0.01 | 0.07 | 0.01 | 92 | 1007.8 |
| 20260830222354 | 50 | 137 | 0.0 | 0.0 | 0.01 | 0.07 | 0.01 | 93 | 1007.8 |
| 20260830222255 | 50 | 137 | 0.0 | 0.0 | 0.01 | 0.07 | 0.01 | 93 | 1007.8 |
| 20260830221854 | 50 | 137 | 0.0 | 0.0 | 0.01 | 0.07 | 0.01 | 93 | 1007.6 |
| 20260830221354 | 50 | 137 | 0.0 | 0.0 | 0.01 | 0.07 | 0.01 | 93 | 1007.6 |
| 20260830221155 | 51 | 137 | 0.0 | 0.0 | 0.01 | 0.07 | 0.01 | 93 | 1007.6 |
| 20260830220854 | 50 | 137 | 0.0 | 0.0 | 0.00 | 0.06 | 0.00 | 93 | 1007.6 |
| 20260830220354 | 51 | 137 | 0.0 | 0.0 | 0.00 | 0.06 | 0.00 | 93 | 1007.6 |
| 20260830220055 | 51 | 137 | 0.0 | 0.0 | 0.00 | 0.06 | 0.00 | 92 | 1007.6 |
| 20260830215854 | 51 | 137 | 0.0 | 0.0 | 0.00 | 0.06 | 0.00 | 92 | 1007.6 |
| 20260830215354 | 51 | 137 | 0.0 | 0.0 | 0.00 | 0.06 | 0.00 | 92 | 1007.5 |
| 20260830214955 | 50 | 137 | 0.0 | 0.0 | 0.00 | 0.06 | 0.00 | 92 | 1007.5 |
| 20260830214854 | 50 | 137 | 0.0 | 0.0 | 0.00 | 0.06 | 0.00 | 92 | 1007.5 |
| 20260830214354 | 51 | 137 | 0.0 | 0.0 | 0.00 | 0.06 | 0.06 | 92 | 1007.5 |
| 20260830213854 | 51 | 137 | 0.0 | 0.0 | 0.00 | 0.06 | 0.06 | 91 | 1007.5 |
| 20260830213354 | 51 | 137 | 0.0 | 0.0 | 0.00 | 0.06 | 0.06 | 91 | 1007.5 |
| 20260830212854 | 51 | 137 | 0.0 | 0.0 | 0.00 | 0.06 | 0.06 | 91 | 1007.2 |
| 20260830212755 | 51 | 137 | 0.0 | 0.0 | 0.00 | 0.06 | 0.06 | 91 | 1007.5 |
| 20260830212354 | 51 | 137 | 0.0 | 0.0 | 0.00 | 0.06 | 0.06 | 91 | 1007.5 |
| 20260830211854 | 51 | 137 | 0.0 | 0.0 | 0.00 | 0.06 | 0.06 | 91 | 1007.5 |
| 20260830211655 | 51 | 137 | 0.0 | 0.0 | 0.00 | 0.06 | 0.06 | 91 | 1007.4 |
| 20260830211354 | 51 | 137 | 0.0 | 0.0 | 0.00 | 0.06 | 0.06 | 91 | 1007.5 |
| 20260830210854 | 51 | 137 | 0.0 | 0.0 | 0.00 | 0.06 | 0.06 | 91 | 1007.4 |
| 20260830210555 | 52 | 137 | 0.0 | 0.0 | 0.00 | 0.06 | 0.06 | 91 | 1007.4 |
| 20260830210354 | 51 | 137 | 0.0 | 0.0 | 0.00 | 0.06 | 0.06 | 91 | 1007.4 |
| 20260830205854 | 52 | 137 | 0.0 | 0.0 | 0.00 | 0.06 | 0.06 | 91 | 1007.3 |
| 20260830205455 | 52 | 137 | 0.0 | 0.0 | 0.00 | 0.06 | 0.06 | 91 | 1007.3 |
| 20260830205354 | 52 | 137 | 0.0 | 0.0 | 0.00 | 0.06 | 0.06 | 91 | 1007.3 |
| 20260830204854 | 52 | 137 | 0.0 | 0.0 | 0.00 | 0.06 | 0.06 | 91 | 1007.3 |
| 20260830204354 | 52 | 137 | 0.0 | 0.0 | 0.00 | 0.06 | 0.06 | 91 | 1007.3 |
| 20260830203854 | 52 | 137 | 0.0 | 0.0 | 0.00 | 0.06 | 0.06 | 91 | 1007.3 |
| 20260830203354 | 52 | 137 | 0.0 | 0.0 | 0.00 | 0.06 | 0.06 | 91 | 1007.3 |
| 20260830203255 | 52 | 137 | 0.0 | 0.0 | 0.00 | 0.06 | 0.06 | 91 | 1007.3 |
| 20260830202854 | 52 | 137 | 0.0 | 0.0 | 0.00 | 0.06 | 0.06 | 90 | 1007.2 |
| 20260830202354 | 52 | 137 | 0.0 | 0.0 | 0.00 | 0.06 | 0.06 | 90 | 1007.2 |
| 20260830202155 | 52 | 137 | 0.0 | 0.0 | 0.00 | 0.06 | 0.06 | 90 | 1007.3 |
| 20260830201854 | 52 | 137 | 0.0 | 0.0 | 0.00 | 0.06 | 0.06 | 90 | 1007.2 |
| 20260830201354 | 52 | 137 | 0.0 | 0.0 | 0.00 | 0.06 | 0.06 | 90 | 1007.3 |
| 20260830201055 | 52 | 137 | 0.0 | 0.0 | 0.00 | 0.06 | 0.06 | 90 | 1007.3 |
| 20260830200854 | 52 | 137 | 0.0 | 0.0 | 0.00 | 0.06 | 0.06 | 90 | 1007.3 |
| 20260830200354 | 52 | 137 | 0.0 | 0.0 | 0.00 | 0.06 | 0.06 | 90 | 1007.2 |
| 20260830195955 | 52 | 137 | 0.0 | 0.0 | 0.00 | 0.06 | 0.06 | 90 | 1007.2 |
| 20260830195854 | 52 | 137 | 0.0 | 0.0 | 0.00 | 0.06 | 0.06 | 89 | 1007.3 |
| 20260830195354 | 52 | 137 | 0.0 | 0.0 | 0.00 | 0.06 | 0.06 | 89 | 1007.2 |
| 20260830194854 | 52 | 137 | 0.0 | 0.0 | 0.00 | 0.06 | 0.06 | 89 | 1007.2 |
| 20260830194354 | 52 | 137 | 0.0 | 0.0 | 0.00 | 0.06 | 0.06 | 89 | 1007.1 |
| 20260830193854 | 53 | 137 | 0.0 | 0.0 | 0.00 | 0.06 | 0.06 | 89 | 1006.7 |
| 20260830193755 | 52 | 137 | 0.0 | 0.0 | 0.00 | 0.06 | 0.06 | 89 | 1007.0 |
| 20260830193354 | 53 | 137 | 0.0 | 0.0 | 0.00 | 0.06 | 0.06 | 89 | 1007.0 |
| 20260830192854 | 53 | 137 | 0.0 | 0.0 | 0.00 | 0.06 | 0.06 | 89 | 1006.9 |
| 20260830192655 | 53 | 137 | 0.0 | 0.0 | 0.00 | 0.06 | 0.06 | 89 | 1007.0 |
| 20260830192354 | 53 | 137 | 0.0 | 0.0 | 0.00 | 0.06 | 0.06 | 89 | 1007.0 |
| 20260830191854 | 53 | 137 | 0.0 | 0.0 | 0.00 | 0.06 | 0.06 | 88 | 1007.0 |
| 20260830191555 | 53 | 137 | 0.0 | 0.0 | 0.00 | 0.06 | 0.06 | 88 | 1007.1 |
| 20260830191354 | 53 | 137 | 0.0 | 0.0 | 0.00 | 0.06 | 0.06 | 88 | 1007.1 |
| 20260830190854 | 53 | 137 | 0.0 | 0.0 | 0.00 | 0.06 | 0.06 | 88 | 1007.1 |
| 20260830190455 | 53 | 137 | 0.0 | 0.0 | 0.00 | 0.06 | 0.06 | 87 | 1007.1 |
| 20260830190354 | 53 | 137 | 0.0 | 0.0 | 0.00 | 0.06 | 0.06 | 87 | 1007.1 |
| 20260830185854 | 53 | 137 | 0.0 | 0.0 | 0.00 | 0.06 | 0.06 | 87 | 1007.0 |
| 20260830185354 | 53 | 137 | 0.0 | 0.0 | 0.00 | 0.06 | 0.06 | 87 | 1007.0 |
| 20260830184854 | 54 | 137 | 0.0 | 0.0 | 0.00 | 0.06 | 0.06 | 87 | 1006.9 |
| 20260830184354 | 54 | 137 | 0.0 | 0.0 | 0.00 | 0.06 | 0.06 | 87 | 1006.6 |
| 20260830184255 | 54 | 137 | 0.0 | 0.0 | 0.00 | 0.06 | 0.06 | 87 | 1006.9 |
| 20260830183854 | 54 | 137 | 0.0 | 0.0 | 0.00 | 0.06 | 0.06 | 87 | 1006.7 |
| 20260830183354 | 54 | 137 | 0.0 | 0.0 | 0.00 | 0.06 | 0.06 | 87 | 1006.7 |
| 20260830183155 | 54 | 137 | 0.0 | 0.0 | 0.00 | 0.06 | 0.06 | 87 | 1006.6 |
| 20260830182854 | 54 | 137 | 0.0 | 0.0 | 0.00 | 0.06 | 0.06 | 86 | 1006.6 |
| 20260830182354 | 54 | 137 | 0.0 | 0.0 | 0.00 | 0.06 | 0.06 | 87 | 1006.6 |
| 20260830182055 | 54 | 137 | 0.0 | 0.0 | 0.00 | 0.06 | 0.06 | 86 | 1006.6 |
| 20260830181854 | 54 | 137 | 0.0 | 0.0 | 0.00 | 0.06 | 0.06 | 86 | 1006.6 |
| 20260830181354 | 54 | 137 | 0.0 | 0.0 | 0.00 | 0.06 | 0.06 | 86 | 1006.6 |
| 20260830180955 | 54 | 137 | 0.0 | 0.0 | 0.00 | 0.06 | 0.06 | 85 | 1006.6 |
| 20260830180854 | 54 | 137 | 0.0 | 0.0 | 0.00 | 0.06 | 0.06 | 85 | 1006.6 |
| 20260830180354 | 55 | 137 | 0.0 | 0.0 | 0.00 | 0.07 | 0.06 | 85 | 1006.6 |
| 20260830175854 | 55 | 137 | 0.0 | 0.0 | 0.00 | 0.07 | 0.06 | 85 | 1006.6 |
| 20260830175354 | 55 | 137 | 0.0 | 0.0 | 0.00 | 0.07 | 0.06 | 85 | 1006.5 |
| 20260830174854 | 55 | 137 | 0.0 | 0.0 | 0.00 | 0.07 | 0.06 | 85 | 1006.3 |
| 20260830174757 | 55 | 137 | 0.0 | 0.0 | 0.00 | 0.07 | 0.06 | 85 | 1006.5 |
| 20260830174354 | 55 | 137 | 0.0 | 0.0 | 0.00 | 0.07 | 0.06 | 85 | 1006.5 |
| 20260830173854 | 55 | 137 | 0.0 | 0.0 | 0.00 | 0.07 | 0.06 | 85 | 1006.5 |
| 20260830173655 | 55 | 137 | 0.0 | 0.0 | 0.00 | 0.07 | 0.06 | 85 | 1006.5 |
| 20260830173354 | 55 | 137 | 0.0 | 2.0 | 0.00 | 0.07 | 0.06 | 85 | 1006.4 |
| 20260830172854 | 56 | 285 | 2.0 | 2.0 | 0.00 | 0.07 | 0.06 | 85 | 1006.4 |
| 20260830172556 | 56 | 75 | 0.0 | 0.0 | 0.00 | 0.07 | 0.06 | 84 | 1006.4 |
| 20260830172354 | 56 | 75 | 0.0 | 0.0 | 0.00 | 0.07 | 0.06 | 84 | 1006.4 |
| 20260830171854 | 56 | 75 | 0.0 | 0.0 | 0.00 | 0.07 | 0.06 | 84 | 1006.3 |
| 20260830171455 | 56 | 75 | 0.0 | 0.0 | 0.00 | 0.07 | 0.06 | 84 | 1006.4 |
| 20260830171355 | 56 | 75 | 0.0 | 0.0 | 0.00 | 0.07 | 0.06 | 84 | 1006.3 |
| 20260830170854 | 56 | 75 | 0.0 | 1.0 | 0.00 | 0.07 | 0.06 | 83 | 1006.3 |
| 20260830170355 | 56 | 216 | 0.0 | 0.0 | 0.00 | 0.09 | 0.06 | 83 | 1006.3 |
| 20260830165854 | 56 | 216 | 0.0 | 2.0 | 0.00 | 0.09 | 0.06 | 82 | 1006.3 |
| 20260830165355 | 56 | 137 | 0.0 | 0.0 | 0.00 | 0.09 | 0.06 | 82 | 1006.3 |
| 20260830165256 | 56 | 137 | 0.0 | 0.0 | 0.00 | 0.09 | 0.06 | 82 | 1006.4 |
| 20260830164855 | 56 | 137 | 0.0 | 0.0 | 0.00 | 0.09 | 0.06 | 82 | 1006.3 |
| 20260830164355 | 56 | 137 | 0.0 | 0.0 | 0.00 | 0.09 | 0.06 | 82 | 1006.2 |
| 20260830164156 | 56 | 137 | 0.0 | 0.0 | 0.00 | 0.09 | 0.06 | 82 | 1006.3 |
| 20260830163855 | 56 | 137 | 0.0 | 0.0 | 0.00 | 0.09 | 0.06 | 82 | 1006.2 |
| 20260830163356 | 56 | 137 | 0.0 | 0.0 | 0.00 | 0.09 | 0.06 | 82 | 1006.2 |
| 20260830163056 | 56 | 137 | 0.0 | 0.0 | 0.00 | 0.09 | 0.06 | 81 | 1006.2 |
| 20260830162855 | 56 | 137 | 0.0 | 0.0 | 0.00 | 0.09 | 0.06 | 81 | 1006.2 |
| 20260830162355 | 56 | 137 | 0.0 | 0.0 | 0.00 | 0.09 | 0.06 | 81 | 1006.2 |
| 20260830161956 | 56 | 137 | 0.0 | 0.0 | 0.00 | 0.09 | 0.06 | 82 | 1006.2 |
| 20260830161855 | 56 | 137 | 0.0 | 0.0 | 0.00 | 0.09 | 0.06 | 81 | 1006.2 |
| 20260830161355 | 56 | 137 | 0.0 | 0.0 | 0.01 | 0.09 | 0.06 | 82 | 1006.2 |
| 20260830160855 | 57 | 137 | 0.0 | 0.0 | 0.02 | 0.09 | 0.06 | 81 | 1006.2 |
| 20260830160355 | 57 | 137 | 0.0 | 0.0 | 0.03 | 0.10 | 0.06 | 81 | 1006.2 |
| 20260830155855 | 56 | 137 | 0.0 | 0.0 | 0.04 | 0.10 | 0.06 | 81 | 1006.0 |
| 20260830155756 | 56 | 137 | 0.0 | 0.0 | 0.04 | 0.10 | 0.06 | 81 | 1006.2 |
| 20260830155355 | 56 | 137 | 0.0 | 0.0 | 0.05 | 0.10 | 0.06 | 81 | 1006.2 |
| 20260830154855 | 56 | 137 | 0.0 | 0.0 | 0.06 | 0.10 | 0.06 | 80 | 1006.2 |
| 20260830154656 | 57 | 137 | 0.0 | 0.0 | 0.06 | 0.10 | 0.06 | 80 | 1006.2 |
| 20260830154355 | 57 | 137 | 0.0 | 0.0 | 0.06 | 0.10 | 0.06 | 79 | 1006.2 |
| 20260830153855 | 57 | 137 | 0.0 | 0.0 | 0.06 | 0.10 | 0.06 | 79 | 1006.2 |
| 20260830153556 | 57 | 137 | 0.0 | 0.0 | 0.06 | 0.10 | 0.06 | 79 | 1006.2 |
| 20260830153355 | 57 | 137 | 0.0 | 0.0 | 0.06 | 0.10 | 0.06 | 79 | 1006.1 |
| 20260830152855 | 57 | 95 | 0.0 | 1.0 | 0.06 | 0.10 | 0.06 | 79 | 1006.2 |
| 20260830152456 | 57 | 232 | 0.0 | 0.0 | 0.06 | 0.10 | 0.06 | 78 | 1006.2 |
| 20260830152355 | 56 | 232 | 0.0 | 0.0 | 0.06 | 0.10 | 0.06 | 79 | 1006.2 |
| 20260830151855 | 56 | 232 | 0.0 | 0.0 | 0.06 | 0.10 | 0.06 | 79 | 1006.2 |
| 20260830151355 | 56 | 232 | 0.0 | 2.0 | 0.05 | 0.09 | 0.05 | 78 | 1006.2 |
| 20260830150855 | 56 | 208 | 0.0 | 2.0 | 0.04 | 0.08 | 0.04 | 78 | 1006.3 |
| 20260830150355 | 56 | 279 | 0.0 | 4.0 | 0.03 | 0.14 | 0.03 | 77 | 1006.0 |
| 20260830150256 | 56 | 244 | 0.0 | 4.0 | 0.03 | 0.14 | 0.03 | 77 | 1006.2 |
| 20260830145855 | 56 | 309 | 1.0 | 5.0 | 0.02 | 0.13 | 0.02 | 76 | 1006.2 |
| 20260830145355 | 57 | 241 | 3.0 | 4.0 | 0.01 | 0.12 | 0.01 | 77 | 1006.3 |
| 20260830145156 | 57 | 261 | 2.0 | 7.0 | 0.01 | 0.12 | 0.01 | 75 | 1006.3 |
| 20260830144855 | 58 | 253 | 2.0 | 7.0 | 0.00 | 0.11 | 0.00 | 72 | 1006.3 |
| 20260830144355 | 58 | 284 | 2.0 | 7.0 | 0.00 | 0.11 | 0.00 | 71 | 1006.2 |
| 20260830144056 | 59 | 295 | 1.0 | 7.0 | 0.00 | 0.11 | 0.00 | 71 | 1006.2 |
| 20260830143855 | 59 | 264 | 3.0 | 7.0 | 0.00 | 0.11 | 0.00 | 70 | 1006.2 |
| 20260830143355 | 60 | 111 | 1.0 | 7.0 | 0.00 | 0.11 | 0.00 | 71 | 1006.2 |
| 20260830142956 | 60 | 302 | 0.0 | 2.0 | 0.00 | 0.11 | 0.00 | 70 | 1006.2 |
| 20260830142855 | 60 | 343 | 1.0 | 1.0 | 0.00 | 0.11 | 0.00 | 70 | 1006.2 |
| 20260830142355 | 60 | 250 | 0.0 | 3.0 | 0.00 | 0.11 | 0.00 | 68 | 1006.2 |
| 20260830141855 | 60 | 229 | 0.0 | 2.0 | 0.00 | 0.11 | 0.00 | 68 | 1006.2 |
| 20260830141355 | 60 | 247 | 0.0 | 3.0 | 0.00 | 0.11 | 0.00 | 69 | 1006.1 |
| 20260830140855 | 60 | 285 | 0.0 | 2.0 | 0.00 | 0.11 | 0.00 | 68 | 1005.9 |
| 20260830140756 | 61 | 275 | 1.0 | 2.0 | 0.00 | 0.11 | 0.00 | 68 | 1006.1 |
| 20260830140355 | 61 | 313 | 0.0 | 2.0 | 0.00 | 0.22 | 0.00 | 67 | 1006.1 |
| 20260830135855 | 61 | 229 | 0.0 | 1.0 | 0.00 | 0.22 | 0.00 | 66 | 1006.1 |
| 20260830135656 | 61 | 229 | 0.0 | 1.0 | 0.00 | 0.22 | 0.00 | 66 | 1006.1 |
| 20260830135355 | 61 | 267 | 0.0 | 2.0 | 0.00 | 0.22 | 0.00 | 65 | 1006.0 |
| 20260830134855 | 61 | 201 | 0.0 | 2.0 | 0.00 | 0.22 | 0.00 | 65 | 1006.0 |
| 20260830134556 | 61 | 315 | 0.0 | 2.0 | 0.00 | 0.22 | 0.00 | 66 | 1006.0 |
| 20260830134355 | 61 | 322 | 1.0 | 2.0 | 0.00 | 0.22 | 0.00 | 67 | 1005.9 |
| 20260830133855 | 61 | 270 | 0.0 | 3.0 | 0.00 | 0.22 | 0.00 | 67 | 1005.9 |
| 20260830133456 | 61 | 286 | 0.0 | 3.0 | 0.00 | 0.22 | 0.00 | 67 | 1005.9 |
| 20260830133355 | 61 | 260 | 3.0 | 3.0 | 0.00 | 0.22 | 0.00 | 68 | 1005.9 |
| 20260830132855 | 61 | 285 | 0.0 | 3.0 | 0.00 | 0.22 | 0.00 | 67 | 1005.9 |
| 20260830132355 | 61 | 247 | 3.0 | 5.0 | 0.00 | 0.22 | 0.00 | 63 | 1005.9 |
| 20260830131855 | 61 | 201 | 2.0 | 6.0 | 0.00 | 0.22 | 0.00 | 62 | 1005.9 |
| 20260830131355 | 62 | 303 | 2.0 | 5.0 | 0.00 | 0.22 | 0.00 | 65 | 1005.7 |
| 20260830131256 | 62 | 116 | 0.0 | 4.0 | 0.00 | 0.22 | 0.00 | 65 | 1005.7 |
| 20260830130855 | 61 | 202 | 0.0 | 4.0 | 0.00 | 0.22 | 0.00 | 67 | 1005.7 |
| 20260830130355 | 61 | 272 | 3.0 | 5.0 | 0.00 | 0.27 | 0.00 | 69 | 1005.6 |
| 20260830130156 | 61 | 196 | 1.0 | 6.0 | 0.00 | 0.27 | 0.00 | 68 | 1005.7 |
| 20260830125855 | 60 | 298 | 4.0 | 6.0 | 0.00 | 0.27 | 0.00 | 68 | 1005.7 |
| 20260830125355 | 60 | 307 | 2.0 | 4.0 | 0.00 | 0.27 | 0.00 | 73 | 1005.6 |
| 20260830125056 | 59 | 302 | 0.0 | 4.0 | 0.00 | 0.27 | 0.00 | 72 | 1005.6 |